GW0774 Weather Reports


time (UTC)temp
F
wind
direction
speed
knots
gust
knots
rain 1hr
in
rain 24hr
in
rain mn
in
humidity
%
barometer
mb
20260505052039 55 225 0.9 1.7 0.00 0.00 0.00 82 1030.8
20260505051552 55 225 0.9 1.7 0.00 0.00 0.00 81 1030.8
20260505051036 56 225 0.9 1.7 0.00 0.00 0.00 80 1030.8
20260505050542 56 225 0.0 1.7 0.00 0.00 0.00 79 1030.9
20260505041550 60 227 2.6 3.5 0.00 0.00 0.00 72 1030.9
20260505041039 60 231 2.6 4.3 0.00 0.00 0.00 72 1030.8
20260505040536 60 236 2.6 4.3 0.00 0.00 0.00 72 1030.9
20260505040054 60 238 2.6 4.3 0.00 0.00 0.00 71 1030.9
20260505035537 61 229 2.6 4.3 0.00 0.00 0.00 70 1030.9
20260505035039 61 229 2.6 4.3 0.00 0.00 0.00 71 1030.9
20260505034552 61 236 2.6 4.3 0.00 0.00 0.00 70 1031.0
20260505034040 61 236 2.6 5.2 0.00 0.00 0.00 69 1031.1
20260505033540 61 259 3.5 7.0 0.00 0.00 0.00 69 1031.0
20260505033049 61 294 2.6 7.8 0.00 0.00 0.00 69 1031.1
20260505032542 61 250 3.5 7.8 0.00 0.00 0.00 69 1031.0
20260505032039 61 234 2.6 9.6 0.00 0.00 0.00 70 1031.0
20260505031557 61 309 4.3 9.6 0.00 0.00 0.00 69 1031.0
20260505031042 61 235 3.5 7.0 0.00 0.00 0.00 68 1031.1
20260505030540 61 239 3.5 7.8 0.00 0.00 0.00 70 1031.0
20260505030054 61 253 3.5 7.8 0.00 0.00 0.00 68 1031.0
20260505025537 61 261 3.5 7.8 0.00 0.00 0.00 69 1031.0
20260505025040 61 241 3.5 7.8 0.00 0.00 0.00 68 1030.9
20260505024550 61 294 1.7 7.0 0.00 0.00 0.00 71 1030.9
20260505024039 61 240 3.5 7.0 0.00 0.00 0.00 70 1030.9
20260505023536 61 229 1.7 7.0 0.00 0.00 0.00 68 1031.0
20260505023047 61 298 4.3 7.0 0.00 0.00 0.00 68 1031.0
20260505022540 61 265 2.6 7.8 0.00 0.00 0.00 68 1031.1
20260505022040 61 273 3.5 8.7 0.00 0.00 0.00 68 1031.1
20260505021549 61 250 4.3 8.7 0.00 0.00 0.00 67 1031.1
20260505021040 61 228 3.5 7.8 0.00 0.00 0.00 69 1031.1
20260505020540 61 284 2.6 8.7 0.00 0.00 0.00 67 1031.1
20260505020042 61 240 4.3 8.7 0.00 0.00 0.00 70 1031.0
20260505015540 61 234 3.5 7.0 0.00 0.00 0.00 70 1031.1
20260505015040 61 243 4.3 8.7 0.00 0.00 0.00 70 1031.2
20260505014602 61 237 1.7 8.7 0.00 0.00 0.00 69 1031.2
20260505014042 61 284 2.6 7.0 0.00 0.00 0.00 69 1031.3
20260505013538 61 266 3.5 7.0 0.00 0.00 0.00 68 1031.4
20260505013047 61 240 2.6 7.0 0.00 0.00 0.00 70 1031.4
20260505012540 61 246 2.6 7.8 0.00 0.00 0.00 69 1031.4
20260505012041 61 246 2.6 7.8 0.00 0.00 0.00 69 1031.4
20260505011551 60 268 2.6 6.1 0.00 0.00 0.00 69 1031.4
20260505011040 60 257 2.6 7.0 0.00 0.00 0.00 71 1031.5
20260505010543 60 217 2.6 7.0 0.00 0.00 0.00 70 1031.5
20260505010045 60 244 3.5 7.0 0.00 0.00 0.00 70 1031.7
20260505005540 60 240 3.5 7.0 0.00 0.00 0.00 69 1031.6
20260505005042 60 260 2.6 5.2 0.00 0.00 0.00 69 1031.7
20260505004541 60 257 2.6 8.7 0.00 0.00 0.00 70 1031.8
20260505004038 60 232 2.6 9.6 0.00 0.00 0.00 70 1032.0
20260505003539 60 253 3.5 9.6 0.00 0.00 0.00 70 1032.1
20260505003053 60 267 2.6 7.0 0.00 0.00 0.00 71 1032.3
20260505002540 60 217 2.6 5.2 0.00 0.00 0.00 69 1032.3
20260505002040 60 301 1.7 5.2 0.00 0.00 0.00 70 1032.5
20260505001547 59 236 1.7 5.2 0.00 0.00 0.00 74 1032.5
20260505001039 59 228 1.7 4.3 0.00 0.00 0.00 70 1032.6
20260505000540 59 235 3.5 7.0 0.00 0.00 0.00 70 1032.7
20260505000055 59 231 2.6 9.6 0.00 0.00 0.00 71 1032.6
20260504235542 59 271 3.5 9.6 0.00 0.00 0.00 71 1032.7
20260504235043 59 235 3.5 9.6 0.00 0.00 0.00 71 1032.8
20260504234551 59 241 3.5 8.7 0.00 0.00 0.00 70 1032.9
20260504234040 59 294 2.6 8.7 0.00 0.00 0.00 71 1033.1
20260504233542 59 226 4.3 7.8 0.00 0.00 0.00 71 1033.2
20260504233043 58 240 3.5 7.0 0.00 0.00 0.00 71 1033.3
20260504232540 58 240 2.6 7.0 0.00 0.00 0.00 72 1033.3
20260504232040 58 335 2.6 7.0 0.00 0.00 0.00 72 1033.4
20260504231549 58 269 2.6 7.0 0.00 0.00 0.00 73 1033.3
20260504231038 58 273 3.5 7.0 0.00 0.00 0.00 72 1033.3
20260504230539 58 290 2.6 7.0 0.00 0.00 0.00 72 1033.4
20260504230050 58 323 1.7 4.3 0.00 0.00 0.00 74 1033.3
20260504225539 58 236 1.7 4.3 0.00 0.00 0.00 76 1033.3
20260504225042 58 265 0.9 4.3 0.00 0.00 0.00 78 1033.3
20260504224547 58 263 0.9 3.5 0.00 0.00 0.00 78 1033.4
20260504224040 57 49 0.9 4.3 0.00 0.00 0.00 78 1033.4
20260504223540 57 69 1.7 4.3 0.00 0.00 0.00 79 1033.3
20260504223043 57 237 0.9 2.6 0.00 0.00 0.00 80 1033.3
20260504222542 57 238 0.9 2.6 0.00 0.00 0.00 79 1033.2
20260504222040 57 153 0.0 2.6 0.00 0.00 0.00 81 1033.0
20260504221548 56 0 0.0 4.3 0.00 0.00 0.00 82 1033.2
20260504221040 56 73 1.7 4.3 0.00 0.00 0.00 81 1033.2
20260504220540 56 71 1.7 6.1 0.00 0.00 0.00 81 1033.1
20260504220050 56 68 1.7 6.1 0.00 0.00 0.00 82 1033.1
20260504215540 56 78 0.9 4.3 0.00 0.00 0.00 82 1033.3
20260504215040 55 106 1.7 5.2 0.00 0.00 0.00 83 1033.3
20260504214554 55 71 1.7 5.2 0.00 0.00 0.00 83 1033.2
20260504214039 55 62 0.9 4.3 0.00 0.00 0.00 83 1033.2
20260504213539 55 36 2.6 7.0 0.00 0.00 0.00 82 1033.3
20260504213044 55 86 1.7 7.0 0.00 0.00 0.00 82 1033.3
20260504212540 55 76 0.9 2.6 0.00 0.00 0.00 83 1033.3
20260504212043 55 71 0.0 0.9 0.00 0.00 0.00 83 1033.4
20260504211546 55 0 0.0 2.6 0.00 0.00 0.00 84 1033.3
20260504211041 54 0 0.0 2.6 0.00 0.00 0.00 83 1033.4
20260504210540 54 0 0.0 1.7 0.00 0.00 0.00 84 1033.5
20260504210055 54 0 0.0 1.7 0.00 0.00 0.00 84 1033.4
20260504205540 54 87 0.0 0.9 0.00 0.00 0.00 84 1033.5
20260504205040 54 0 0.0 0.9 0.00 0.00 0.00 85 1033.6
20260504204607 53 0 0.0 0.9 0.00 0.00 0.00 85 1033.5
20260504204039 53 0 0.0 0.9 0.00 0.00 0.00 85 1033.6
20260504203540 53 0 0.0 0.9 0.00 0.00 0.00 85 1033.6
20260504203115 53 0 0.0 0.9 0.00 0.00 0.00 85 1033.5
20260504202540 53 87 0.0 1.7 0.00 0.00 0.00 85 1033.5
20260504202040 53 0 0.0 1.7 0.00 0.00 0.00 85 1033.5
20260504201549 52 229 0.0 2.6 0.00 0.00 0.00 84 1033.6
20260504201040 52 0 0.0 2.6 0.00 0.00 0.00 84 1033.6
20260504200540 52 232 0.0 2.6 0.00 0.00 0.00 84 1033.5
20260504200053 53 0 0.0 2.6 0.00 0.00 0.00 84 1033.4
20260504195540 53 232 1.7 2.6 0.00 0.00 0.00 83 1033.5
20260504195041 53 231 0.0 0.9 0.00 0.00 0.00 83 1033.4
20260504194544 53 0 0.0 0.9 0.00 0.00 0.00 83 1033.3
20260504194040 53 231 0.0 0.9 0.00 0.00 0.00 83 1033.4
20260504193540 52 231 0.0 0.9 0.00 0.00 0.00 83 1033.4
20260504193051 52 231 0.0 0.9 0.00 0.00 0.00 83 1033.2
20260504192538 52 231 0.9 0.9 0.00 0.00 0.00 83 1033.3
20260504192039 52 232 0.0 0.9 0.00 0.00 0.00 83 1033.3
20260504191552 52 232 0.0 0.9 0.00 0.00 0.00 84 1033.3
20260504191106 52 232 0.0 0.9 0.00 0.00 0.00 83 1033.3
20260504190539 52 0 0.0 0.9 0.00 0.00 0.00 83 1033.3
20260504190052 52 0 0.0 0.0 0.00 0.00 0.00 83 1033.3
20260504185538 52 0 0.0 0.0 0.00 0.00 0.00 82 1033.2
20260504185040 52 0 0.0 0.0 0.00 0.00 0.00 81 1033.3
20260504184548 52 0 0.0 0.9 0.00 0.00 0.00 81 1033.3
20260504184038 52 234 0.0 0.9 0.00 0.00 0.00 80 1033.3
20260504183539 52 234 0.0 1.7 0.00 0.00 0.00 80 1033.3
20260504183045 53 234 0.9 1.7 0.00 0.00 0.00 80 1033.3
20260504182538 53 234 0.9 1.7 0.00 0.00 0.00 80 1033.3
20260504182038 53 234 0.9 2.6 0.00 0.00 0.00 80 1033.4
20260504181542 53 234 1.7 2.6 0.00 0.00 0.00 79 1033.4
20260504181038 53 234 0.9 2.6 0.00 0.00 0.00 79 1033.4
20260504180539 54 234 1.7 2.6 0.00 0.00 0.00 79 1033.5
20260504180053 54 253 0.9 2.6 0.00 0.00 0.00 79 1033.5
20260504175539 54 236 0.9 5.2 0.00 0.00 0.00 79 1033.5
20260504175039 53 236 1.7 5.2 0.00 0.00 0.00 79 1033.6
20260504174549 53 246 0.9 2.6 0.00 0.00 0.00 81 1033.5
20260504174039 53 247 0.9 2.6 0.00 0.00 0.00 82 1033.6
20260504173539 53 0 0.0 3.5 0.00 0.00 0.00 83 1033.6
20260504173107 53 286 0.9 3.5 0.00 0.00 0.00 83 1033.5
20260504172538 53 0 0.0 2.6 0.00 0.00 0.00 84 1033.4
20260504172038 53 270 0.0 2.6 0.00 0.00 0.00 84 1033.5
20260504171549 53 270 0.0 2.6 0.00 0.00 0.00 84 1033.7
20260504171039 53 277 0.0 3.5 0.00 0.00 0.00 83 1033.5
20260504170539 53 277 1.7 3.5 0.00 0.00 0.00 83 1033.5
20260504151039 54 0 0.0 1.7 0.00 0.00 0.00 83 1033.6
20260504150540 54 247 0.0 2.6 0.00 0.00 0.00 82 1033.7
20260504141039 54 247 0.0 2.6 0.00 0.00 0.00 82 1034.1
20260504140542 54 0 0.0 2.6 0.00 0.00 0.00 82 1034.1
20260504130538 53 0 0.0 1.7 0.00 0.00 0.00 84 1034.2
20260504130204 53 240 0.0 2.6 0.00 0.00 0.00 84 1034.2
20260504110538 54 0 0.0 0.9 0.00 0.00 0.00 86 1034.2
20260504100538 54 240 0.0 0.9 0.00 0.00 0.00 85 1034.3
20260504081551 55 0 0.0 0.9 0.00 0.00 0.00 83 1033.6
20260504081038 55 0 0.0 0.0 0.00 0.00 0.00 83 1033.6
20260504080542 55 0 0.0 0.9 0.00 0.00 0.00 83 1033.6